| time (UTC) | temp C | wind direction | speed KPH | gust KPH | rain 1hr cm | rain 24hr cm | rain mn cm | humidity % | barometer mb |
| 20260508105003 | 10 | 329 | 3.2 | 6.4 | 0.00 | 0.00 | 0.00 | 40 | 1014.2 |
| 20260508104003 | 11 | 0 | 0.0 | 0.0 | 0.00 | 0.00 | 0.00 | 36 | 1014.1 |
| 20260508103004 | 11 | 329 | 3.2 | 6.4 | 0.00 | 0.00 | 0.00 | 36 | 1014.1 |
| 20260508102003 | 11 | 325 | 3.2 | 6.4 | 0.00 | 0.00 | 0.00 | 36 | 1014.1 |
| 20260508101003 | 11 | 311 | 3.2 | 8.0 | 0.00 | 0.00 | 0.00 | 37 | 1014.1 |
| 20260508100004 | 11 | 300 | 6.4 | 8.0 | 0.00 | 0.00 | 0.00 | 35 | 1014.1 |
| 20260508095003 | 11 | 293 | 4.8 | 9.7 | 0.00 | 0.00 | 0.00 | 36 | 1014.2 |
| 20260508094003 | 12 | 288 | 8.0 | 9.7 | 0.00 | 0.00 | 0.00 | 33 | 1014.2 |
| 20260508093003 | 12 | 286 | 6.4 | 9.7 | 0.00 | 0.00 | 0.00 | 32 | 1014.3 |
| 20260508092003 | 12 | 286 | 6.4 | 9.7 | 0.00 | 0.00 | 0.00 | 33 | 1014.3 |
| 20260508091003 | 12 | 290 | 6.4 | 9.7 | 0.00 | 0.00 | 0.00 | 35 | 1014.4 |
| 20260508090003 | 12 | 291 | 6.4 | 11.3 | 0.00 | 0.00 | 0.00 | 35 | 1014.4 |
| 20260508085003 | 11 | 316 | 4.8 | 9.7 | 0.00 | 0.00 | 0.00 | 39 | 1014.4 |
| 20260508084214 | 11 | 319 | 4.8 | 9.7 | 0.00 | 0.00 | 0.00 | 39 | 1014.4 |
| 20260508083003 | 12 | 299 | 6.4 | 9.7 | 0.00 | 0.00 | 0.00 | 36 | 1014.6 |
| 20260508082214 | 12 | 294 | 6.4 | 9.7 | 0.00 | 0.00 | 0.00 | 35 | 1014.5 |
| 20260508081004 | 12 | 287 | 8.0 | 11.3 | 0.00 | 0.00 | 0.00 | 35 | 1014.6 |
| 20260508080004 | 12 | 286 | 8.0 | 11.3 | 0.00 | 0.00 | 0.00 | 35 | 1014.7 |
| 20260508075003 | 12 | 289 | 6.4 | 9.7 | 0.00 | 0.00 | 0.00 | 36 | 1014.7 |
| 20260508074003 | 11 | 301 | 4.8 | 8.0 | 0.00 | 0.00 | 0.00 | 39 | 1014.8 |
| 20260508073213 | 11 | 299 | 4.8 | 8.0 | 0.00 | 0.00 | 0.00 | 40 | 1014.8 |
| 20260508072213 | 12 | 298 | 4.8 | 8.0 | 0.00 | 0.00 | 0.00 | 39 | 1014.8 |
| 20260508071003 | 12 | 308 | 4.8 | 8.0 | 0.00 | 0.00 | 0.00 | 39 | 1014.9 |
| 20260508070003 | 12 | 298 | 3.2 | 6.4 | 0.00 | 0.00 | 0.00 | 40 | 1014.9 |
| 20260508065003 | 12 | 288 | 6.4 | 9.7 | 0.00 | 0.00 | 0.00 | 40 | 1014.9 |
| 20260508064213 | 12 | 284 | 8.0 | 11.3 | 0.00 | 0.00 | 0.00 | 42 | 1014.9 |
| 20260508063003 | 12 | 286 | 8.0 | 11.3 | 0.00 | 0.00 | 0.00 | 43 | 1015.1 |
| 20260508062003 | 12 | 285 | 8.0 | 11.3 | 0.00 | 0.00 | 0.00 | 44 | 1015.1 |
| 20260508061003 | 11 | 307 | 4.8 | 9.7 | 0.00 | 0.00 | 0.00 | 51 | 1015.1 |
| 20260508060003 | 11 | 323 | 4.8 | 6.4 | 0.00 | 0.00 | 0.00 | 57 | 1015.2 |
| 20260508055003 | 10 | 323 | 4.8 | 6.4 | 0.00 | 0.00 | 0.00 | 58 | 1015.2 |
| 20260508054003 | 11 | 328 | 6.4 | 8.0 | 0.00 | 0.00 | 0.00 | 58 | 1015.2 |
| 20260508053003 | 11 | 335 | 4.8 | 8.0 | 0.00 | 0.00 | 0.00 | 55 | 1015.3 |
| 20260508052003 | 11 | 0 | 0.0 | 0.0 | 0.00 | 0.00 | 0.00 | 54 | 1015.4 |
| 20260508051003 | 12 | 335 | 1.6 | 4.8 | 0.00 | 0.00 | 0.00 | 53 | 1015.3 |
| 20260508050003 | 12 | 335 | 0.0 | 4.8 | 0.00 | 0.00 | 0.00 | 53 | 1015.4 |
| 20260508045003 | 12 | 0 | 0.0 | 0.0 | 0.00 | 0.00 | 0.00 | 51 | 1015.4 |
| 20260508044214 | 12 | 0 | 0.0 | 0.0 | 0.00 | 0.00 | 0.00 | 50 | 1015.4 |
| 20260508043003 | 12 | 0 | 0.0 | 0.0 | 0.00 | 0.00 | 0.00 | 50 | 1015.4 |
| 20260508042003 | 13 | 0 | 0.0 | 0.0 | 0.00 | 0.00 | 0.00 | 49 | 1015.4 |
| 20260508041214 | 13 | 0 | 0.0 | 0.0 | 0.00 | 0.00 | 0.00 | 48 | 1015.4 |
| 20260508040004 | 13 | 0 | 0.0 | 0.0 | 0.00 | 0.00 | 0.00 | 47 | 1015.3 |
| 20260508035003 | 14 | 0 | 0.0 | 0.0 | 0.00 | 0.00 | 0.00 | 45 | 1015.1 |
| 20260508034214 | 15 | 0 | 0.0 | 0.0 | 0.00 | 0.00 | 0.00 | 45 | 1015.2 |
| 20260508033003 | 15 | 0 | 0.0 | 0.0 | 0.00 | 0.00 | 0.00 | 44 | 1015.2 |
| 20260508032003 | 15 | 0 | 0.0 | 0.0 | 0.00 | 0.00 | 0.00 | 43 | 1015.1 |
| 20260508031003 | 16 | 0 | 0.0 | 0.0 | 0.00 | 0.00 | 0.00 | 43 | 1015.0 |
| 20260508030213 | 16 | 152 | 1.6 | 8.0 | 0.00 | 0.00 | 0.00 | 43 | 1015.0 |
| 20260508025003 | 16 | 163 | 4.8 | 9.7 | 0.00 | 0.00 | 0.00 | 42 | 1014.9 |
| 20260508024003 | 16 | 162 | 4.8 | 11.3 | 0.00 | 0.00 | 0.00 | 42 | 1015.1 |
| 20260508023003 | 17 | 154 | 6.4 | 11.3 | 0.00 | 0.00 | 0.00 | 40 | 1015.0 |
| 20260508022003 | 17 | 153 | 6.4 | 11.3 | 0.00 | 0.00 | 0.00 | 40 | 1014.9 |
| 20260508021003 | 17 | 158 | 8.0 | 11.3 | 0.00 | 0.00 | 0.00 | 39 | 1014.9 |
| 20260508020003 | 17 | 150 | 6.4 | 12.9 | 0.00 | 0.00 | 0.00 | 39 | 1014.8 |
| 20260508015004 | 17 | 148 | 6.4 | 16.1 | 0.00 | 0.00 | 0.00 | 38 | 1015.0 |
| 20260508014003 | 18 | 146 | 8.0 | 14.5 | 0.00 | 0.00 | 0.00 | 38 | 1014.9 |
| 20260508013003 | 18 | 143 | 6.4 | 12.9 | 0.00 | 0.00 | 0.00 | 37 | 1014.9 |
| 20260508012003 | 18 | 153 | 4.8 | 12.9 | 0.00 | 0.00 | 0.00 | 37 | 1015.0 |
| 20260508011003 | 19 | 170 | 8.0 | 16.1 | 0.00 | 0.00 | 0.00 | 35 | 1014.9 |
| 20260508010003 | 19 | 162 | 6.4 | 16.1 | 0.00 | 0.00 | 0.00 | 35 | 1015.1 |
| 20260508005003 | 20 | 193 | 6.4 | 12.9 | 0.00 | 0.00 | 0.00 | 33 | 1015.1 |
| 20260508004213 | 20 | 178 | 4.8 | 14.5 | 0.00 | 0.00 | 0.00 | 32 | 1015.1 |
| 20260508003212 | 20 | 218 | 1.6 | 12.9 | 0.00 | 0.00 | 0.00 | 32 | 1015.2 |
| 20260508002213 | 20 | 202 | 8.0 | 16.1 | 0.00 | 0.00 | 0.00 | 32 | 1015.3 |
| 20260508001214 | 20 | 146 | 4.8 | 11.3 | 0.00 | 0.00 | 0.00 | 33 | 1015.2 |
| 20260508000004 | 20 | 151 | 8.0 | 14.5 | 0.00 | 0.00 | 0.00 | 33 | 1015.2 |
| 20260507235003 | 20 | 166 | 3.2 | 19.3 | 0.00 | 0.00 | 0.00 | 32 | 1015.3 |
| 20260507234212 | 20 | 144 | 3.2 | 11.3 | 0.00 | 0.00 | 0.00 | 32 | 1015.4 |
| 20260507233004 | 19 | 130 | 6.4 | 16.1 | 0.00 | 0.00 | 0.00 | 32 | 1015.4 |
| 20260507232003 | 19 | 255 | 3.2 | 9.7 | 0.00 | 0.00 | 0.00 | 33 | 1015.5 |
| 20260507231003 | 19 | 198 | 8.0 | 17.7 | 0.00 | 0.00 | 0.00 | 31 | 1015.5 |
| 20260507230005 | 20 | 178 | 3.2 | 11.3 | 0.00 | 0.00 | 0.00 | 32 | 1015.5 |
| 20260507225003 | 20 | 190 | 3.2 | 11.3 | 0.00 | 0.00 | 0.00 | 33 | 1015.6 |
| 20260507224003 | 19 | 189 | 3.2 | 9.7 | 0.00 | 0.00 | 0.00 | 34 | 1015.7 |
| 20260507223003 | 19 | 177 | 4.8 | 16.1 | 0.00 | 0.00 | 0.00 | 36 | 1015.8 |
| 20260507222004 | 19 | 168 | 4.8 | 20.9 | 0.00 | 0.00 | 0.00 | 35 | 1015.9 |
| 20260507221003 | 18 | 200 | 6.4 | 19.3 | 0.00 | 0.00 | 0.00 | 35 | 1016.0 |
| 20260507220004 | 18 | 219 | 6.4 | 14.5 | 0.00 | 0.00 | 0.00 | 36 | 1016.1 |
| 20260507215004 | 18 | 243 | 3.2 | 16.1 | 0.00 | 0.00 | 0.00 | 37 | 1016.2 |
| 20260507214004 | 18 | 205 | 3.2 | 12.9 | 0.00 | 0.00 | 0.00 | 36 | 1016.3 |
| 20260507213003 | 18 | 152 | 6.4 | 16.1 | 0.00 | 0.00 | 0.00 | 38 | 1016.4 |
| 20260507212003 | 18 | 207 | 9.7 | 19.3 | 0.00 | 0.00 | 0.00 | 36 | 1016.5 |
| 20260507211003 | 18 | 165 | 6.4 | 48.3 | 0.00 | 0.00 | 0.00 | 36 | 1016.5 |
| 20260507210004 | 18 | 204 | 6.4 | 19.3 | 0.00 | 0.00 | 0.00 | 35 | 1016.5 |
| 20260507205003 | 18 | 135 | 1.6 | 6.4 | 0.00 | 0.00 | 0.00 | 35 | 1016.6 |
| 20260507204003 | 18 | 193 | 6.4 | 16.1 | 0.00 | 0.00 | 0.00 | 36 | 1016.7 |
| 20260507203003 | 18 | 212 | 9.7 | 19.3 | 0.00 | 0.00 | 0.00 | 36 | 1016.7 |
| 20260507202004 | 18 | 167 | 4.8 | 24.1 | 0.00 | 0.00 | 0.00 | 35 | 1016.7 |
| 20260507201003 | 18 | 25 | 0.0 | 8.0 | 0.00 | 0.00 | 0.00 | 33 | 1016.9 |
| 20260507200003 | 18 | 7 | 1.6 | 11.3 | 0.00 | 0.00 | 0.00 | 33 | 1016.9 |
| 20260507195003 | 18 | 40 | 6.4 | 16.1 | 0.00 | 0.00 | 0.00 | 34 | 1017.0 |
| 20260507194003 | 17 | 39 | 3.2 | 12.9 | 0.00 | 0.00 | 0.00 | 35 | 1017.0 |
| 20260507193003 | 17 | 33 | 4.8 | 16.1 | 0.00 | 0.00 | 0.00 | 35 | 1017.0 |
| 20260507192003 | 17 | 43 | 6.4 | 16.1 | 0.00 | 0.00 | 0.00 | 36 | 1016.9 |
| 20260507191003 | 17 | 357 | 1.6 | 9.7 | 0.00 | 0.00 | 0.00 | 35 | 1017.0 |
| 20260507190004 | 17 | 11 | 6.4 | 14.5 | 0.00 | 0.00 | 0.00 | 35 | 1017.0 |
| 20260507185003 | 16 | 11 | 3.2 | 11.3 | 0.00 | 0.00 | 0.00 | 37 | 1016.9 |
| 20260507184003 | 16 | 330 | 1.6 | 8.0 | 0.00 | 0.00 | 0.00 | 36 | 1016.9 |
| 20260507183003 | 16 | 90 | 3.2 | 9.7 | 0.00 | 0.00 | 0.00 | 37 | 1016.9 |
| 20260507182003 | 16 | 66 | 3.2 | 9.7 | 0.00 | 0.00 | 0.00 | 36 | 1016.9 |
| 20260507181212 | 16 | 18 | 3.2 | 12.9 | 0.00 | 0.00 | 0.00 | 35 | 1016.9 |
| 20260507180004 | 16 | 1 | 3.2 | 11.3 | 0.00 | 0.00 | 0.00 | 35 | 1016.9 |
| 20260507175003 | 16 | 2 | 6.4 | 14.5 | 0.00 | 0.00 | 0.00 | 34 | 1017.0 |
| 20260507174003 | 16 | 350 | 6.4 | 14.5 | 0.00 | 0.00 | 0.00 | 34 | 1017.0 |
| 20260507173003 | 16 | 349 | 3.2 | 14.5 | 0.00 | 0.00 | 0.00 | 34 | 1016.8 |
| 20260507172214 | 15 | 318 | 3.2 | 14.5 | 0.00 | 0.00 | 0.00 | 35 | 1016.8 |
| 20260507171003 | 15 | 317 | 4.8 | 16.1 | 0.00 | 0.00 | 0.00 | 36 | 1016.6 |
| 20260507170004 | 15 | 339 | 3.2 | 16.1 | 0.00 | 0.00 | 0.00 | 36 | 1016.7 |
| 20260507165214 | 15 | 341 | 3.2 | 16.1 | 0.00 | 0.00 | 0.00 | 35 | 1016.7 |
| 20260507164003 | 15 | 328 | 3.2 | 12.9 | 0.00 | 0.00 | 0.00 | 38 | 1016.7 |
| 20260507163003 | 15 | 324 | 3.2 | 11.3 | 0.00 | 0.00 | 0.00 | 38 | 1016.6 |
| 20260507162003 | 15 | 318 | 3.2 | 12.9 | 0.00 | 0.00 | 0.00 | 38 | 1016.5 |
| 20260507161003 | 14 | 316 | 3.2 | 9.7 | 0.00 | 0.00 | 0.00 | 38 | 1016.7 |
| 20260507160003 | 14 | 338 | 1.6 | 6.4 | 0.00 | 0.00 | 0.00 | 39 | 1016.7 |
| 20260507155213 | 14 | 355 | 1.6 | 9.7 | 0.00 | 0.00 | 0.00 | 40 | 1016.7 |
| 20260507154004 | 14 | 360 | 1.6 | 8.0 | 0.00 | 0.00 | 0.00 | 41 | 1016.7 |
| 20260507153003 | 13 | 317 | 1.6 | 8.0 | 0.00 | 0.00 | 0.00 | 43 | 1016.7 |
| 20260507152003 | 13 | 304 | 4.8 | 9.7 | 0.00 | 0.00 | 0.00 | 42 | 1016.8 |
| 20260507151003 | 13 | 310 | 3.2 | 9.7 | 0.00 | 0.00 | 0.00 | 45 | 1016.7 |
| 20260507150004 | 12 | 302 | 3.2 | 9.7 | 0.00 | 0.00 | 0.00 | 46 | 1016.7 |
| 20260507145003 | 12 | 311 | 6.4 | 12.9 | 0.00 | 0.00 | 0.00 | 49 | 1016.7 |
| 20260507144003 | 11 | 310 | 8.0 | 14.5 | 0.00 | 0.00 | 0.00 | 48 | 1016.4 |
| 20260507143003 | 11 | 310 | 6.4 | 14.5 | 0.00 | 0.00 | 0.00 | 49 | 1016.4 |
| 20260507142003 | 11 | 310 | 3.2 | 12.9 | 0.00 | 0.00 | 0.00 | 48 | 1016.1 |
| 20260507141003 | 11 | 319 | 1.6 | 6.4 | 0.00 | 0.00 | 0.00 | 47 | 1016.0 |
| 20260507140003 | 11 | 320 | 0.0 | 6.4 | 0.00 | 0.00 | 0.00 | 48 | 1015.9 |
| 20260507135003 | 11 | 343 | 0.0 | 1.6 | 0.00 | 0.00 | 0.00 | 50 | 1015.7 |
| 20260507134212 | 10 | 317 | 0.0 | 4.8 | 0.00 | 0.00 | 0.00 | 52 | 1015.5 |
| 20260507133003 | 10 | 323 | 0.0 | 4.8 | 0.00 | 0.00 | 0.00 | 54 | 1015.4 |
| 20260507132003 | 9 | 316 | 3.2 | 8.0 | 0.00 | 0.00 | 0.00 | 54 | 1015.3 |
| 20260507131003 | 9 | 317 | 3.2 | 14.5 | 0.00 | 0.00 | 0.00 | 55 | 1015.4 |
| 20260507130004 | 8 | 315 | 3.2 | 14.5 | 0.00 | 0.00 | 0.00 | 55 | 1015.2 |
| 20260507125003 | 8 | 313 | 4.8 | 16.1 | 0.00 | 0.00 | 0.00 | 55 | 1015.1 |
| 20260507124003 | 8 | 318 | 1.6 | 11.3 | 0.00 | 0.00 | 0.00 | 56 | 1015.2 |
| 20260507123003 | 8 | 316 | 3.2 | 12.9 | 0.00 | 0.00 | 0.00 | 55 | 1015.1 |
| 20260507122214 | 8 | 316 | 4.8 | 14.5 | 0.00 | 0.00 | 0.00 | 55 | 1015.2 |
| 20260507121214 | 8 | 315 | 8.0 | 19.3 | 0.00 | 0.00 | 0.00 | 53 | 1015.1 |
| 20260507120003 | 8 | 314 | 9.7 | 20.9 | 0.00 | 0.00 | 0.00 | 52 | 1015.2 |
| 20260507115003 | 9 | 314 | 6.4 | 17.7 | 0.00 | 0.00 | 0.00 | 51 | 1015.1 |
| 20260507114003 | 9 | 312 | 9.7 | 20.9 | 0.00 | 0.00 | 0.00 | 50 | 1014.9 |
| 20260507113003 | 9 | 310 | 6.4 | 19.3 | 0.00 | 0.00 | 0.00 | 51 | 1015.0 |
| 20260507112214 | 8 | 314 | 3.2 | 14.5 | 0.00 | 0.00 | 0.00 | 52 | 1014.9 |
| 20260507111004 | 8 | 314 | 1.6 | 9.7 | 0.00 | 0.00 | 0.00 | 55 | 1014.9 |
| 20260507110213 | 7 | 305 | 3.2 | 8.0 | 0.00 | 0.00 | 0.00 | 55 | 1014.9 |